Simultaneous Nadir Overpasses (SNOs) Predictions

Prediction of SNOs between NOAA-19 and TERRA Satellite Orbit:

Table of predicted SNOs for the next 14.0 days since TLE Epoch: 4/18/2020
Index Date (NOAA-19) Time (NOAA-19) Lat,Lon (NOAA-19) SZA (NOAA-19 ) Date (TERRA) Time (TERRA) Lat,Lon (TERRA) SZA (TERRA ) Distance(km) Time Diff (sec)
1 04/20/2020 02:16:16 79.34, 173.40 68.93 04/20/2020 02:16:13 79.35, 173.30 68.94 2.85 3
2 04/22/2020 07:49:33 -79.36, -90.05 111.80 04/22/2020 07:49:55 -79.38, -89.94 111.77 3.36 22
3 04/22/2020 08:40:35 79.32, 77.59 68.19 04/22/2020 08:39:22 79.34, 77.43 68.16 4.18 73
4 04/24/2020 13:22:56 79.38, 6.52 67.49 04/24/2020 13:23:37 79.36, 6.50 67.48 2.05 41
5 04/24/2020 14:13:52 -79.36, 173.99 112.53 04/24/2020 14:13:05 -79.33, 173.93 112.58 3.49 47
6 04/26/2020 18:56:11 -79.38, 103.35 113.22 04/26/2020 18:57:19 -79.39, 103.24 113.19 2.45 68
7 04/26/2020 19:47:15 79.37, -89.33 66.77 04/26/2020 19:46:46 79.34, -89.42 66.73 3.24 29
8 04/29/2020 01:20:30 -79.37, 7.37 113.91 04/29/2020 01:20:28 -79.36, 7.31 113.93 1.65 2
9 05/01/2020 06:53:54 79.39, 103.94 65.43 05/01/2020 06:54:09 79.37, 103.89 65.41 3.20 15




NCC Satellite Simultaneous Nadir Overpasses (SNOs) Prediction Service
